www.pogodaiklimat.ru

Погода и климат >> Архив погоды >> Уругвай >> Артигас


ПОГОДА в Артигасе

  • Прогноз погоды в Артигасе
  • Монитор погоды в Артигасе

АРХИВ ПОГОДЫ в Артигасе

Время (UTC), дата Ветер
(напр.,м/с)
 
Видим.   Явления Облачность Т
(С)
Тd
(С)
f
(%)
Тe
(С)
Тes
(С)
Комфортность P
(гПа)
Po
(гПа)
Тmin
(С)
Tmax
(С)
R
(мм)
R24
(мм)
S
(см)
09 10.09 ЮВ 3 10 км гроза, ливневой дождь 10/3 200 м
[Cb cap Ac As]
+13.8 +13.5 98 +13 +13 1013.7 999.2
12 10.09 ЮВ 14 15 км гроза без осадков 10/5 300 м
[Cb cap Ac As]
+14.0 +13.2 95 +10 +10 1015.0 1000.5 3
15 10.09 ЮВ 7 15 км в посл. час дождь {гроза} 10/1 300 м
[Frnb Ac As]
+14.0 +13.3 96 +12 +13 1016.2 1001.8
18 10.09 Ю 8 20 км {гроза, дождь} 10/4 300 м
[St Ac As]
+15.2 +13.9 92 +13 +13 1015.3 1000.9 2
09 11.09 ЮВ 11 15 км 10/10 200 м
[Frnb]
+13.0 +12.3 96 +9 +9 1012.8 998.3
12 11.09 ЮВ 6 20 км в посл. час дождь 10/10 200 м
[Frnb]
+13.7 +12.7 94 +11 +11 1013.5 999.1 0.8
15 11.09 В 10 15 км слаб. дождь 10/9 300 м
[Frnb As op]
+14.8 +13.8 94 +12 +12 1013.0 998.6
18 11.09 Ю 6 20 км {дождь} 10/6 300 м
[Frnb Ac As]
+15.9 +14.8 93 +14 +15 1011.4 997.1 0.5
09 12.09 Ю 9 6000 м дымка 9/9 200 м
[Frnb]
+13.6 +12.9 96 +11 +11 1016.6 1002.1
12 12.09 ЮВ 14 20 км 9/9 300 м
[Cu med, cong]
+14.8 +13.8 94 +12 +12 1019.3 1004.8 0.2
15 12.09 Ю 10 20 км 9/9 300 м
[Cu med, cong]
+16.2 +12.9 81 +14 +14 1020.4 1005.9
18 12.09 ЮЗ 10 20 км 6/6 600 м
[Cu med, cong]
+19.2 +10.3 56 +19 +19 1019.5 1005.2
09 13.09 штиль 0 15 км ясно +8.2 +6.8 91 +7 +7 1022.8 1007.9
12 13.09 В 5 20 км 1/0
[Ac cast]
+13.0 +9.2 78 +11 +13 1023.9 1009.3
15 13.09 В 10 20 км 8/8 600 м
[Sc diur, vesp]
+19.3 +12.7 66 +20 +20 1023.0 1008.6
18 13.09 СВ 4 20 км 6/6 600 м
[Sc diur, vesp]
+21.5 +11.9 54 +24 +26 комфорт 1020.1 1005.9
12 14.09 В 10 20 км 9/0
[Ac lent Ci]
+13.7 +11.1 84 +11 +11 1016.4 1002.0
15 14.09 В 5 20 км 8/3 600 м
[Cu hum Ac trans Ci]
+19.0 +14.5 75 +20 +24 1015.4 1001.2
18 14.09 В 3 20 км 8/8 600 м
[Cu med, cong]
+22.0 +16.5 71 +26 +28 душно 1011.6 997.6
09 15.09 штиль 0 <100 м туман ?/? +13.4 +13.4 100 +13 +13 1010.1 995.6
12 15.09 В 5 10 км в посл. час туман 1/1 50 м
[St]
+16.0 +15.0 94 +15 +17 1010.0 995.7
15 15.09 СВ 4 20 км ясно +26.8 +20.9 70 +34 +44 очень
душно
1008.0 994.2
18 15.09 СВ 6 15 км ясно +31.1 +22.6 61 +41 +45 опасность
перегрева
1004.6 991.1
09 16.09 ЮВ 8 15 км 8/0
[Ac As]
+23.2 +20.9 87 +31 +31 очень
душно
1005.0 991.1
12 16.09 В 20 18 км {дождь} 9/5 300 м
[Frnb Ac As]
+19.6 +18.1 91 +20 +20 1008.2 994.1 0.8
15 16.09 ЮВ 20 20 км 9/5 300 м
[Sc Ac trans]
+20.4 +16.1 76 +22 +22 комфорт 1011.5 997.4
18 16.09 ЮВ 16 20 км 9/9 600 м
[Sc]
+18.4 +13.5 73 +17 +17 1012.7 998.4

 

Местоположение метеостанции Артигас (Уругвай): широта -30.38 долгота -56.50 высота над уровнем моря 120 м.

В архиве по умолчанию представлена погода в Артигасе за последнюю неделю. Архивные данные за месяц целиком и за предыдущие месяцы, начиная с января 2011 года, Вы можете получить, выбрав интересующий диапазон дат из раскрывающегося списка и нажав кнопку "Ввод!".


*Определитесь, кто Вы:
робот инопланетянин человек

Внимание! Время в таблицах - всемирное. Для получения местного времени необходимо прибавить поправку, которая равна 0 ч.

Смотрите также архив погоды в соседних городах и на ближайших метеорологических станциях:

Погода в Куараи (Риу-Гранди-ду-Сул, Бразилия) (6 км)
Погода в Уругуаяне (Риу-Гранди-ду-Сул, Бразилия) (81 км)
Погода в Уругуаяне (Риу-Гранди-ду-Сул, Бразилия) (90 км)
Погода в Сантана-ду-Ливраменту (Риу-Гранди-ду-Сул, Бразилия) (100 км)
Погода в Пасо-де-Лос-Либресе (Аргентина) (100 км)
Погода в Белья-Уньоне (Уругвай) (105 км)
Погода в Ривере (Уругвай) (108 км)
Погода в Монте-Касерос (Аргентина) (111 км)
Погода в Алегрети (Риу-Гранди-ду-Сул, Бразилия) (119 км)
Погода в Такуарембо (Уругвай) (155 км)

Пояснения к столбцам:

Ветер - указаны скорость ветра в м/с - средняя за 10 мин, порывы в срок и между сроками (в фигурных скобках) и направление, откуда дует ветер: С - северный, СВ - северо-восточный, В - восточный, ЮВ - юго-восточный, Ю - южный, ЮЗ - юго-западный, З - западный, СЗ - северо-западный.
Видимость - горизонтальная дальность видимости в метрах или километрах. При видимости от 1 до 10 км при отсутствии осадков обычно наблюдается дымка, при ухудшении видимости до 1 км и менее - туман. В сухую погоду видимость может ухудшаться дымом, пылью или мглою.
Явления - указаны атмосферные явления, наблюдавшиеся в срок или в последний час перед сроком; фигурными скобками обозначены явления, наблюдавшиеся между сроками (за 1-3 часа до срока); квадратными скобками обозначены град или гололедные отложения с указанием их диаметра в мм.
Облачность - указаны через наклонную черту общая и нижняя облачность в баллах и высота нижней границы облаков в метрах; квадратными скобками обозначены формы облаков: Ci - перистые, Cs - перисто-слоистые, Cc - перисто-кучевые, Ac - высококучевые, As - высокослоистые, Sc - слоисто-кучевые, Ns - слоисто-дождевые, Cu - кучевые, Cb - кучево-дождевые. Подробнее классификацию облаков см. в Атласе облаков (PDF).
T - Температура воздуха - температура, измеренная на высоте 2 м над землей.
Td - Температура точки росы - температура, при понижении до которой содержащийся в воздухе водяной пар достигнет насыщения.
f - Относительная влажность воздуха - влажноcть воздуха, измеренная на высоте 2 м над землей.
Te - Эффективная температура - температура, которую ощущает одетый по сезону человек в тени. Характеристика душности погоды. При расчете учитывается влияние влажности воздуха и скорости ветра на теплоощущения человека.
Tes - Эффективная температура на солнце - температура, которую ощущает человек, с поправкой на солнечный нагрев. Характеристика знойности погоды. Зависит от высоты солнца над горизонтом, облачности и скорости ветра. Ночью, в пасмурную погоду, а также при ветре 12 м/с и более поправка равна нулю.
P - Атмосферное давление - приведенное к уровню моря атмосферное давление.
Po - Атмосферное давление - измеренное на уровне метеостанции атмосферное давление.
Tmin - Минимальная температура - минимум температуры воздуха на высоте 2 м над землей.
Tmax - Максимальная температура - максимум температуры воздуха на высоте 2 м над землей.
R - Количество осадков - Количество выпавших осадков за период времени, мм. При наведении курсора мыши на число - период времени, за который выпало указанное количество осадков.
R24 - Количество осадков - Количество выпавших осадков за 24 часа, мм.
S - Снежный покров - Высота снежного покрова, см. При наведении курсора мыши на число - состояние снежного покрова и степень покрытия местности в баллах.